Location: *
(51.0333°S, 178.4667°E)
Time: 09:07:35
(UTC+00:00)

Molniya-1 - Pass Details

Date: 15 November 2019
Orbit: 316 x 39986 km, 62.3° (Epoch: 08 December)

Event Time Altitude Azimuth Distance (km) Brightness Sun altitude
Rises 08:36:05 0° 223° (SW) 2,224 8.9 -8.5°
Reaches altitude 10° 08:37:55 10° 208° (SSW) 1,269 6.6 -8.7°
Maximum altitude 08:39:52 28° 142° (SE) 750 4.1 -8.9°
Drops below altitude 10° 08:42:52 10° 77° (ENE) 1,990 5.7 -9.3°
Enters shadow 08:43:24 - 75° (ENE) 2,267 5.9 -9.3°
